Flag for United Kingdom Weather past 2 weeks in Londonderry, Northern Ireland, United Kingdom

Now
52 °F

Partly sunny.


Feels Like: 46 °F
Forecast: N/A
Wind: 21 mph from Southwest

Location: Eglinton / Londonderry

Current Time: Mar 5, 2015 at 7:41:08 PM

Latest Report: Mar 5, 2015 at 3:50 PM


Visibility: N/A

Pressure: 30.33 "Hg

Humidity: 82%

Dew point: 46 °F

Location of LondonderryLocation

Historic Weather in Londonderry — Graph

°F

Londonderry temperature yesterday

Maximum temperature yesterday: 50 °F (at 12:20 PM)
Minimum temperature yesterday: 39 °F (at 5:50 AM)
Average temperature yesterday: 45 °F

Past Weeks' High & Low Weather Summary

 TemperatureHumidityPressure
High55 °F (Feb 18, 3:50 PM)100% (Feb 22, 7:50 PM)30.45 "Hg (Feb 22, 7:50 PM)
Low32 °F (Mar 3, 5:50 AM)58% (Mar 4, 12:20 PM)28.62 "Hg (Feb 23, 2:50 PM)
Average42 °F83%29.57 "Hg
* Reported Feb 18 3:20 PM — Mar 5 3:50 PM, Londonderry, Weather by CustomWeather, © 2015

Note: Actual official high and low records may vary slightly from our data, if they occured in-between our weather recording intervals... More about our weather records

Advertising

Londonderry weather history for previous 24 hours

 ConditionsComfort  
Time TempWeatherWind HumidityBarometerVisibility
3:50 PM
Thu, Mar 5
52 °FPartly sunny.21 mph82%30.33 "HgN/A
3:20 PM52 °FPartly sunny.24 mph77%30.33 "HgN/A
2:50 PM52 °FPartly sunny.21 mph77%30.33 "HgN/A
2:20 PM54 °FPartly sunny.25 mph72%30.33 "HgN/A
1:50 PM54 °FPartly sunny.30 mph67%30.33 "HgN/A
1:20 PM54 °FPartly sunny.18 mph67%30.33 "HgN/A
12:50 PM52 °FScattered clouds.20 mph72%30.36 "HgN/A
12:20 PM52 °FPartly sunny.18 mph72%30.36 "HgN/A
11:50 AM52 °FPartly sunny.21 mph67%30.36 "HgN/A
11:20 AM52 °FPartly sunny.21 mph72%30.36 "HgN/A
10:50 AM50 °FPartly sunny.23 mph76%30.39 "HgN/A
10:20 AM50 °FPartly sunny.22 mph76%30.36 "HgN/A
9:50 AM48 °FScattered showers. Partly sunny.23 mph82%30.36 "HgN/A
9:20 AM48 °FPartly sunny.26 mph82%30.36 "HgN/A
8:50 AM48 °FPartly sunny.22 mph82%30.36 "HgN/A
8:20 AM48 °FPartly sunny.21 mph82%30.36 "HgN/A
7:50 AM46 °FPartly sunny.17 mph87%30.36 "HgN/A
7:20 AM48 °FPartly sunny.20 mph82%30.36 "HgN/A
6:50 AM46 °FPassing clouds.22 mph87%30.36 "HgN/A
6:20 AM46 °FPassing clouds.23 mph87%30.36 "HgN/A
5:50 AM46 °FPassing clouds.17 mph82%30.39 "HgN/A
Weather by CustomWeather, © 2015

See weather overviewHow to use our weather pages